N1IJV-10 Weather Reports


Display with metric or nautical units.
time (UTC)temp
F
wind
direction
speed
MPH
gust
MPH
rain 1hr
in
rain 24hr
in
rain mn
in
humidity
%
barometer
mb
20260906012721 73 149 3.0 5.0 0.00 0.01 0.01 90 1013.6
20260906012216 73 150 2.0 8.0 0.00 0.01 0.01 89 1013.3
20260906011711 73 147 0.0 2.0 0.00 0.01 0.01 89 1013.1
20260906011206 73 149 2.0 3.0 0.00 0.01 0.01 89 1013.3
20260906010701 73 148 2.0 5.0 0.00 0.01 0.01 88 1013.1
20260906010158 73 148 5.0 8.0 0.00 0.01 0.01 88 1013.2
20260906005657 73 145 1.0 5.0 0.00 0.01 0.01 88 1013.0
20260906005156 73 147 1.0 3.0 0.00 0.01 0.01 89 1013.2
20260906004655 73 149 1.0 5.0 0.00 0.01 0.01 89 1013.2
20260906004151 73 133 3.0 3.0 0.00 0.01 0.01 89 1013.2
20260906003646 73 149 3.0 3.0 0.00 0.01 0.01 90 1013.2
20260906003142 73 147 2.0 3.0 0.00 0.01 0.01 90 1013.1
20260906002636 73 145 3.0 5.0 0.00 0.01 0.01 90 1012.9
20260906002131 73 145 3.0 3.0 0.00 0.01 0.01 90 1012.8
20260906001626 73 145 2.0 8.0 0.00 0.01 0.01 90 1012.8
20260906001126 73 145 3.0 5.0 0.00 0.01 0.01 90 1012.7
20260906000622 73 131 4.0 10.0 0.00 0.01 0.01 89 1012.6
20260906000118 74 144 1.0 3.0 0.00 0.01 0.01 89 1012.4
20260905235616 74 143 3.0 3.0 0.00 0.01 0.01 88 1012.2
20260905235111 75 147 2.0 5.0 0.00 0.01 0.01 87 1012.3
20260905234607 75 145 3.0 5.0 0.00 0.01 0.01 86 1012.4
20260905234102 76 147 3.0 5.0 0.00 0.01 0.01 86 1012.6
20260905233602 76 143 1.0 2.0 0.00 0.01 0.01 85 1012.3
20260905233056 77 141 3.0 9.0 0.00 0.01 0.01 84 1012.1
20260905232552 77 143 5.0 6.0 0.00 0.01 0.01 84 1012.1
20260905232048 77 145 3.0 5.0 0.00 0.01 0.01 84 1012.1
20260905231543 77 147 3.0 7.0 0.00 0.01 0.01 84 1012.3
20260905231039 78 143 3.0 3.0 0.00 0.01 0.01 84 1011.9
20260905230538 78 147 1.0 2.0 0.00 0.01 0.01 84 1011.9
20260905230037 78 143 1.0 2.0 0.00 0.01 0.01 83 1012.1
20260905225531 79 147 1.0 3.0 0.00 0.01 0.01 82 1011.8
20260905225027 80 148 1.0 9.0 0.00 0.01 0.01 81 1011.6
20260905224521 80 149 3.0 7.0 0.00 0.01 0.01 80 1011.5
20260905224021 81 149 3.0 3.0 0.00 0.01 0.01 79 1011.5
20260905223518 81 143 3.0 6.0 0.00 0.01 0.01 78 1011.4
20260905223014 81 147 2.0 5.0 0.00 0.01 0.01 78 1011.5
20260905222514 81 147 0.0 3.0 0.00 0.01 0.01 78 1011.5
20260905222009 82 145 3.0 5.0 0.00 0.01 0.01 76 1011.4
20260905221506 83 148 2.0 3.0 0.00 0.01 0.01 73 1011.3
20260905221001 83 147 2.0 5.0 0.00 0.01 0.01 73 1011.3
20260905220457 83 147 1.0 5.0 0.00 0.01 0.01 74 1011.3
20260905215956 83 137 3.0 5.0 0.00 0.01 0.01 73 1011.6
20260905215452 82 147 0.0 1.0 0.00 0.01 0.01 76 1011.7
20260905214948 82 147 1.0 1.0 0.00 0.01 0.01 77 1011.8
20260905214444 82 150 1.0 3.0 0.00 0.01 0.01 75 1011.6
20260905213944 83 147 1.0 6.0 0.00 0.01 0.01 75 1011.6
20260905213440 83 142 1.0 2.0 0.00 0.01 0.01 75 1011.5
20260905212935 84 150 1.0 3.0 0.00 0.01 0.01 74 1011.4
20260905212430 84 147 0.0 5.0 0.00 0.01 0.01 74 1011.4
20260905211929 85 147 0.0 2.0 0.00 0.01 0.01 73 1011.5
20260905211425 85 147 0.0 1.0 0.00 0.01 0.01 72 1011.5
20260905210921 85 147 1.0 2.0 0.00 0.01 0.01 74 1011.5
20260905210421 84 147 1.0 1.0 0.00 0.01 0.01 73 1011.7
20260905205920 84 147 0.0 0.0 0.00 0.01 0.01 74 1011.5
20260905205415 84 149 1.0 2.0 0.00 0.01 0.01 74 1011.8
20260905204914 83 148 2.0 3.0 0.00 0.01 0.01 76 1011.7
20260905204410 83 147 0.0 1.0 0.00 0.01 0.01 78 1011.5
20260905203909 81 147 1.0 3.0 0.00 0.01 0.01 79 1011.9
20260905203405 81 147 0.0 2.0 0.00 0.01 0.01 81 1011.9
20260905202900 81 160 2.0 5.0 0.00 0.01 0.01 80 1011.8
20260905202355 81 149 1.0 5.0 0.00 0.01 0.01 80 1012.1
20260905201850 80 146 1.0 2.0 0.00 0.01 0.01 83 1011.8
20260905201346 80 141 1.0 2.0 0.00 0.01 0.01 82 1011.7
20260905200840 80 147 0.0 3.0 0.00 0.01 0.01 82 1011.9
20260905200336 79 147 1.0 2.0 0.00 0.01 0.01 82 1011.9
20260905195834 79 142 2.0 3.0 0.00 0.01 0.01 83 1011.9
20260905195329 79 147 1.0 3.0 0.00 0.01 0.01 83 1011.8
20260905194825 79 145 3.0 5.0 0.00 0.01 0.01 83 1012.1
20260905194325 79 149 2.0 2.0 0.00 0.01 0.01 84 1011.9
20260905193824 79 146 2.0 3.0 0.00 0.01 0.01 83 1011.9
20260905193319 80 129 4.0 6.0 0.00 0.01 0.01 83 1012.2
20260905192815 79 148 1.0 2.0 0.00 0.01 0.01 84 1012.1
20260905192311 80 148 1.0 2.0 0.00 0.01 0.01 83 1012.2
20260905191810 80 146 1.0 2.0 0.00 0.01 0.01 83 1011.9
20260905191308 80 149 1.0 5.0 0.00 0.01 0.01 83 1012.3
20260905190807 80 147 1.0 2.0 0.00 0.01 0.01 82 1012.1
20260905190301 81 148 1.0 3.0 0.00 0.01 0.01 82 1012.2
20260905185800 80 162 0.0 2.0 0.00 0.01 0.01 82 1012.3
20260905185254 81 162 2.0 5.0 0.00 0.01 0.01 81 1011.9
20260905184748 82 160 2.0 5.0 0.00 0.01 0.01 81 1012.2
20260905184247 82 161 3.0 3.0 0.00 0.01 0.01 79 1012.1
20260905183741 83 148 0.0 2.0 0.00 0.01 0.01 78 1012.2
20260905183237 82 149 2.0 3.0 0.00 0.01 0.01 79 1012.4
20260905182736 82 147 1.0 2.0 0.00 0.01 0.01 79 1012.3
20260905182236 83 149 1.0 3.0 0.00 0.01 0.01 78 1012.2
20260905181732 83 145 1.0 2.0 0.00 0.01 0.01 79 1012.3
20260905181231 83 149 2.0 7.0 0.00 0.01 0.01 78 1012.2
20260905180726 83 149 0.0 5.0 0.00 0.01 0.01 79 1012.1
20260905180220 82 145 3.0 5.0 0.00 0.01 0.01 79 1012.1
20260905175715 82 147 1.0 3.0 0.00 0.01 0.01 79 1012.1
20260905175209 83 143 4.0 5.0 0.00 0.01 0.01 78 1012.2
20260905174705 82 147 2.0 3.0 0.00 0.01 0.01 79 1011.9
20260905174201 82 149 3.0 5.0 0.00 0.01 0.01 81 1011.9
20260905173657 84 147 2.0 3.0 0.00 0.01 0.01 78 1011.9
20260905173152 85 147 2.0 3.0 0.00 0.01 0.01 77 1011.9
20260905172651 84 147 1.0 3.0 0.00 0.01 0.01 78 1011.8
20260905172145 84 149 2.0 6.0 0.00 0.01 0.01 77 1012.1
20260905171641 84 138 2.0 5.0 0.00 0.01 0.01 78 1011.8
20260905171137 83 147 0.0 3.0 0.00 0.01 0.01 79 1011.9
20260905170634 83 147 1.0 5.0 0.00 0.01 0.01 79 1011.8
20260905170129 85 147 3.0 5.0 0.00 0.01 0.01 76 1012.1
20260905165623 86 148 2.0 2.0 0.00 0.01 0.01 75 1012.1
20260905165119 85 148 1.0 2.0 0.00 0.01 0.01 77 1011.9
20260905164614 86 150 3.0 3.0 0.00 0.01 0.01 74 1012.2
20260905164113 84 149 1.0 2.0 0.00 0.01 0.01 77 1011.9
20260905163609 83 147 2.0 5.0 0.00 0.01 0.01 78 1012.2
20260905163106 83 168 1.0 5.0 0.00 0.01 0.01 79 1012.4
20260905162602 83 149 1.0 3.0 0.00 0.01 0.01 78 1012.4
20260905162101 83 150 2.0 5.0 0.00 0.01 0.01 79 1011.9
20260905161555 83 149 1.0 2.0 0.00 0.01 0.01 78 1012.2
20260905161053 82 149 1.0 2.0 0.00 0.01 0.01 81 1012.3
20260905160552 82 148 1.0 3.0 0.00 0.01 0.01 81 1012.3
20260905160052 81 147 1.0 2.0 0.00 0.01 0.01 82 1012.2
20260905155552 82 147 2.0 3.0 0.00 0.01 0.01 82 1012.2
20260905155050 82 147 3.0 3.0 0.00 0.01 0.01 82 1012.1
20260905154545 83 140 3.0 3.0 0.00 0.01 0.01 81 1012.2
20260905154041 82 148 1.0 2.0 0.00 0.01 0.01 83 1011.8
20260905153537 80 151 2.0 5.0 0.00 0.01 0.01 84 1012.2
20260905153037 81 151 1.0 5.0 0.00 0.01 0.01 83 1012.1
20260905152531 81 150 1.0 3.0 0.00 0.01 0.01 83 1011.8
20260905152027 81 150 1.0 3.0 0.00 0.01 0.01 83 1011.7
20260905151522 81 150 2.0 9.0 0.00 0.01 0.01 83 1011.8
20260905151017 81 149 2.0 3.0 0.00 0.01 0.01 83 1011.8
20260905150512 80 148 0.0 2.0 0.00 0.01 0.01 86 1011.5
20260905150010 79 149 2.0 3.0 0.00 0.01 0.01 87 1011.7
20260905145509 79 149 3.0 3.0 0.00 0.01 0.01 87 1011.4
20260905145003 79 152 5.0 8.0 0.00 0.01 0.01 86 1011.3
20260905144458 79 156 3.0 5.0 0.00 0.01 0.01 86 1011.6
20260905143957 78 148 1.0 7.0 0.00 0.01 0.01 88 1011.4
20260905143456 78 160 3.0 6.0 0.00 0.01 0.01 88 1011.5
20260905142951 78 148 1.0 3.0 0.00 0.01 0.01 89 1011.3
20260905142450 78 149 0.0 3.0 0.00 0.01 0.01 90 1011.5
20260905141945 77 150 2.0 2.0 0.00 0.01 0.01 91 1011.6
20260905141440 77 149 3.0 3.0 0.00 0.01 0.01 92 1011.4
20260905140936 75 149 1.0 3.0 0.00 0.01 0.01 95 1011.3
20260905140431 75 150 0.0 2.0 0.00 0.01 0.01 96 1011.5
20260905135930 74 109 2.0 3.0 0.00 0.01 0.01 97 1011.5
20260905135426 74 149 2.0 3.0 0.00 0.01 0.01 97 1011.3
20260905134921 74 148 1.0 3.0 0.00 0.01 0.01 97 1011.2
20260905134420 74 147 0.0 1.0 0.00 0.01 0.01 98 1011.4
20260905133915 74 136 1.0 3.0 0.00 0.01 0.01 98 1011.3
20260905133415 74 148 0.0 3.0 0.00 0.01 0.01 98 1011.1
20260905132914 75 147 1.0 2.0 0.00 0.01 0.01 98 1011.5
20260905132410 74 148 0.0 2.0 0.00 0.01 0.01 99 1011.3
20260905131905 74 149 2.0 3.0 0.00 0.01 0.01 99 1011.4
20260905131400 74 150 2.0 3.0 0.00 0.01 0.01 99 1011.6
20260905130855 74 149 2.0 3.0 0.00 0.01 0.01 99 1011.6
20260905130354 74 149 1.0 3.0 0.00 0.01 0.01 99 1011.2
20260905125849 75 149 3.0 3.0 0.00 0.01 0.01 99 1010.8
20260905125344 75 150 1.0 2.0 0.00 0.01 0.01 99 1010.7
20260905124840 75 149 0.0 1.0 0.00 0.01 0.01 99 1010.6
20260905124336 74 150 0.0 1.0 0.00 0.01 0.01 99 1010.6
20260905123836 74 149 0.0 1.0 0.00 0.01 0.01 99 1010.4
20260905123333 74 145 1.0 1.0 0.00 0.01 0.01 99 1010.5
20260905122833 74 149 0.0 2.0 0.00 0.01 0.01 99 1010.6
20260905122332 74 149 1.0 1.0 0.00 0.01 0.01 99 1010.5
20260905121827 74 150 0.0 1.0 0.00 0.01 0.01 99 1010.4
20260905121324 74 150 0.0 0.0 0.00 0.01 0.01 99 1010.7
20260905120822 74 149 0.0 0.0 0.00 0.01 0.01 99 1010.5
20260905120317 74 147 0.0 0.0 0.00 0.01 0.01 99 1010.2
20260905115812 74 149 0.0 0.0 0.00 0.01 0.01 99 1010.4
20260905115312 74 148 0.0 0.0 0.00 0.01 0.01 99 1010.4
20260905114812 74 147 0.0 0.0 0.00 0.01 0.01 99 1010.3
20260905114311 74 151 0.0 0.0 0.00 0.01 0.01 99 1010.2
20260905113810 74 147 0.0 0.0 0.00 0.01 0.01 99 1010.0
20260905113306 74 146 0.0 0.0 0.00 0.01 0.01 99 1010.0
20260905112801 74 186 0.0 0.0 0.00 0.01 0.01 99 1010.0
20260905112256 75 147 0.0 0.0 0.00 0.01 0.01 99 1009.9
20260905111750 75 183 0.0 0.0 0.00 0.01 0.01 99 1009.8
20260905111245 75 148 0.0 0.0 0.00 0.01 0.01 99 1009.8
20260905110744 75 147 0.0 1.0 0.00 0.01 0.01 99 1009.8
20260905110238 75 146 0.0 1.0 0.00 0.01 0.01 99 1009.7
20260905105734 75 148 1.0 1.0 0.00 0.01 0.01 99 1009.7
20260905105233 76 149 1.0 2.0 0.00 0.01 0.01 99 1009.6
20260905104728 75 149 0.0 0.0 0.00 0.01 0.01 99 1009.5
20260905104224 75 147 0.0 0.0 0.00 0.01 0.01 99 1009.5
20260905103719 75 162 0.0 0.0 0.00 0.01 0.01 99 1009.5
20260905103215 75 151 0.0 0.0 0.00 0.01 0.01 99 1009.6
20260905102710 75 149 0.0 0.0 0.00 0.01 0.01 99 1009.7
20260905102207 75 186 0.0 0.0 0.00 0.01 0.01 99 1009.4
20260905101706 75 149 0.0 0.0 0.00 0.01 0.01 99 1009.6
20260905101204 76 149 0.0 0.0 0.00 0.01 0.01 99 1009.4
20260905100701 76 147 0.0 0.0 0.00 0.01 0.01 99 1009.5
20260905100155 76 147 0.0 0.0 0.00 0.01 0.01 99 1009.6
20260905095654 76 147 0.0 0.0 0.00 0.01 0.01 99 1009.5
20260905095149 76 152 0.0 0.0 0.00 0.01 0.01 99 1009.4
20260905094644 76 147 0.0 0.0 0.00 0.01 0.01 99 1009.5
20260905094143 76 147 0.0 0.0 0.00 0.01 0.01 99 1009.5
20260905093638 76 145 0.0 0.0 0.00 0.01 0.01 99 1009.7
20260905093135 76 147 0.0 0.0 0.00 0.01 0.01 99 1009.6
20260905092634 76 151 0.0 0.0 0.00 0.01 0.01 99 1009.7
20260905092130 76 147 0.0 0.0 0.00 0.01 0.01 99 1009.5
20260905091630 76 148 0.0 0.0 0.00 0.01 0.01 99 1009.3
20260905091130 76 147 0.0 0.0 0.00 0.01 0.01 99 1009.5
20260905090625 76 147 0.0 0.0 0.00 0.01 0.01 99 1009.3
20260905090120 76 147 0.0 0.0 0.00 0.01 0.01 99 1009.6
20260905085619 76 186 0.0 0.0 0.00 0.01 0.01 99 1009.4
20260905085114 76 151 0.0 0.0 0.07 0.01 0.01 99 1009.4
20260905084614 76 147 0.0 0.0 0.07 0.01 0.01 99 1009.6
20260905084109 76 147 0.0 0.0 0.00 0.00 0.00 99 1009.6
20260905083603 75 145 0.0 0.0 0.00 0.00 0.00 99 1009.3
20260905083100 75 147 0.0 0.0 0.00 0.00 0.00 99 1009.6
20260905082555 75 147 0.0 0.0 0.00 0.00 0.00 99 1009.4
20260905082051 75 186 0.0 0.0 0.00 0.00 0.00 99 1009.6
20260905081550 76 152 0.0 0.0 0.00 0.00 0.00 99 1009.6
20260905081045 75 162 0.0 0.0 0.00 0.00 0.00 99 1009.5
20260905080544 75 147 0.0 0.0 0.00 0.00 0.00 99 1009.5
20260905080039 75 147 0.0 0.0 0.00 0.00 0.00 99 1009.4
20260905075533 76 149 0.0 0.0 0.00 0.00 0.00 99 1009.2
20260905075033 76 152 0.0 0.0 0.00 0.00 0.00 99 1009.6
20260905074527 76 147 0.0 0.0 0.00 0.00 0.00 99 1009.5
20260905074023 76 147 0.0 0.0 0.00 0.00 0.00 99 1009.5
20260905073518 76 186 0.0 0.0 0.00 0.00 0.00 99 1009.5
20260905073014 76 147 0.0 0.0 0.00 0.00 0.00 99 1009.6
20260905072513 76 163 0.0 0.0 0.00 0.00 0.00 98 1009.7
20260905072009 76 152 0.0 0.0 0.00 0.00 0.00 98 1009.8
20260905071506 77 129 0.0 0.0 0.00 0.00 0.00 98 1009.6
20260905071000 77 103 0.0 0.0 0.00 0.00 0.00 98 1009.8
20260905070456 77 147 0.0 0.0 0.00 0.00 0.00 97 1009.8
20260905065955 77 147 0.0 0.0 0.00 0.00 0.00 97 1009.8
20260905065454 77 147 0.0 0.0 0.00 0.00 0.00 97 1009.8
20260905064949 77 149 0.0 0.0 0.00 0.00 0.00 97 1009.7
20260905064444 77 147 0.0 0.0 0.00 0.00 0.00 97 1009.7
20260905063939 77 145 0.0 0.0 0.00 0.00 0.00 96 1009.6
20260905063434 78 147 0.0 0.0 0.00 0.00 0.00 96 1009.7
20260905062930 78 147 0.0 0.0 0.00 0.00 0.00 96 1009.9
20260905062430 78 149 0.0 0.0 0.00 0.00 0.00 96 1009.8
20260905061925 78 143 0.0 0.0 0.00 0.00 0.00 95 1009.9
20260905061419 78 147 0.0 0.0 0.00 0.00 0.00 95 1009.9
20260905060918 78 163 0.0 0.0 0.00 0.00 0.00 94 1010.1
20260905060415 79 147 0.0 0.0 0.00 0.00 0.00 94 1010.1
20260905055914 79 149 0.0 0.0 0.00 0.00 0.00 94 1010.0
20260905055409 79 147 0.0 2.0 0.00 0.00 0.00 94 1009.7
20260905054908 79 148 0.0 0.0 0.00 0.00 0.00 94 1010.1
20260905054404 79 147 0.0 0.0 0.00 0.00 0.00 94 1010.0
20260905053904 79 143 0.0 0.0 0.00 0.00 0.00 93 1010.1
20260905053359 80 152 0.0 0.0 0.00 0.00 0.00 93 1010.0
20260905052855 80 147 0.0 0.0 0.00 0.00 0.00 92 1009.8
20260905052354 80 149 0.0 0.0 0.00 0.00 0.00 92 1009.8
20260905051854 80 149 0.0 0.0 0.00 0.00 0.00 92 1010.1
20260905051350 80 148 0.0 0.0 0.00 0.00 0.00 92 1009.9
20260905050847 80 147 0.0 0.0 0.00 0.00 0.00 91 1009.8
20260905050343 80 149 0.0 0.0 0.00 0.00 0.00 91 1010.1
20260905045843 80 148 0.0 0.0 0.00 0.00 0.00 91 1010.0
20260905045338 81 147 0.0 0.0 0.00 0.00 0.00 90 1009.8
20260905044833 81 148 0.0 0.0 0.00 0.00 0.00 90 1009.7
20260905044329 81 147 0.0 1.0 0.00 0.00 0.00 89 1009.8
20260905043827 81 147 0.0 2.0 0.00 0.00 0.00 89 1009.7
20260905043322 82 145 0.0 1.0 0.00 0.00 0.00 89 1009.8
20260905042817 82 139 1.0 2.0 0.00 0.00 0.00 88 1009.7
20260905042316 82 145 1.0 2.0 0.00 0.00 0.00 88 1009.7
20260905041812 82 152 0.0 1.0 0.00 0.00 0.00 88 1010.0
20260905041308 82 143 1.0 1.0 0.00 0.00 0.00 87 1009.7
20260905040803 82 153 0.0 2.0 0.00 0.00 0.00 87 1009.9
20260905040302 82 145 1.0 2.0 0.00 0.00 0.00 87 1009.8
20260905035756 82 145 2.0 3.0 0.00 0.00 0.00 87 1009.7
20260905035252 82 145 1.0 2.0 0.00 0.00 0.00 87 1009.9
20260905034749 82 147 0.0 1.0 0.00 0.00 0.00 88 1010.0
20260905034248 82 144 0.0 5.0 0.00 0.00 0.00 87 1009.8
20260905033747 80 147 0.0 1.0 0.00 0.00 0.00 91 1009.9
20260905033243 80 153 0.0 0.0 0.00 0.00 0.00 93 1010.4
20260905032742 79 147 0.0 0.0 0.00 0.00 0.00 94 1010.3
20260905032238 79 147 0.0 0.0 0.00 0.00 0.00 95 1010.2
20260905031732 80 147 0.0 0.0 0.00 0.00 0.00 95 1010.3
20260905031229 80 147 0.0 0.0 0.00 0.00 0.00 94 1010.3
20260905030723 80 139 0.0 0.0 0.00 0.00 0.00 93 1010.3
20260905030218 80 127 0.0 0.0 0.00 0.00 0.00 93 1010.7
20260905025713 80 153 0.0 0.0 0.00 0.00 0.00 93 1010.7
20260905025209 80 145 0.0 0.0 0.00 0.00 0.00 92 1010.6
20260905024704 80 139 0.0 0.0 0.00 0.00 0.00 92 1010.4
20260905024200 81 153 0.0 0.0 0.00 0.00 0.00 91 1010.6
20260905023654 81 192 0.0 0.0 0.00 0.00 0.00 91 1010.4
20260905023149 81 147 0.0 0.0 0.00 0.00 0.00 91 1010.4
20260905022648 81 149 0.0 0.0 0.00 0.00 0.00 90 1010.4
20260905022144 81 147 0.0 0.0 0.00 0.00 0.00 90 1010.2
20260905021643 81 149 0.0 0.0 0.00 0.00 0.00 90 1010.4
20260905021139 81 147 0.0 0.0 0.00 0.00 0.00 89 1010.2
20260905020633 81 152 0.0 0.0 0.00 0.00 0.00 89 1010.0
20260905020128 82 149 0.0 0.0 0.00 0.00 0.00 89 1009.9
20260905015627 82 146 0.0 0.0 0.00 0.00 0.00 88 1010.0
20260905015121 82 192 0.0 0.0 0.00 0.00 0.00 88 1010.0
20260905014615 82 147 0.0 0.0 0.00 0.00 0.00 88 1010.0
20260905014111 82 147 0.0 1.0 0.00 0.00 0.00 88 1010.0
20260905013608 82 147 0.0 0.0 0.00 0.00 0.00 88 1009.6
20260905013103 82 147 0.0 0.0 0.00 0.00 0.00 88 1009.7